Waarnemingen

Advertentie
Mijn weer
Capo Frasca, Italië (16539): temperatuur & dauwpunt: 17.10.2018 22:00:00 - 23.10.2018 22:00:00 (CEST)Capo Frasca, Italië (16539): windsnelheid: 17.10.2018 22:00:00 - 23.10.2018 22:00:00 (CEST)Capo Frasca, Italië (16539): windrichting: 17.10.2018 22:00:00 - 23.10.2018 22:00:00 (CEST)Capo Frasca, Italië (16539): luchtdruk: 17.10.2018 22:00:00 - 23.10.2018 22:00:00 (CEST)Capo Frasca, Italië (16539): zicht: 17.10.2018 22:00:00 - 23.10.2018 22:00:00 (CEST)
Datum & Tijd tt [°C] td [°C] ff [km/u] ff [kn] dd ppp [hPa] vv [km]
23.10.2018 22:00:00 - - - - - - -
23.10.2018 21:00:00 - - - - - - -
23.10.2018 20:00:00 18,4 17,9 31 17 NNW 1019,4 20
23.10.2018 19:00:00 - - - - - - -
23.10.2018 18:00:00 - - - - - - -
23.10.2018 17:00:00 21,4 17,8 37 20 NNW 1018,9 25
23.10.2018 16:00:00 - - - - - - -
23.10.2018 15:00:00 - - - - - - -
23.10.2018 14:00:00 20,2 16,7 18 10 W 1020,1 25
23.10.2018 13:00:00 - - - - - - -
23.10.2018 12:00:00 - - - - - - -
23.10.2018 11:00:00 18,6 15,5 21 11 NO 1020,6 20
23.10.2018 10:00:00 - - - - - - -
23.10.2018 09:00:00 - - - - - - -
23.10.2018 08:00:00 14,0 14,0 15 8 NO 1018,8 20
23.10.2018 07:00:00 - - - - - - -
23.10.2018 06:00:00 - - - - - - -
23.10.2018 05:00:00 - - - - - - -
23.10.2018 04:00:00 - - - - - - -
23.10.2018 03:00:00 - - - - - - -
23.10.2018 02:00:00 - - - - - - -
23.10.2018 01:00:00 - - - - - - -
23.10.2018 00:00:00 - - - - - - -
22.10.2018 23:00:00 - - - - - - -
22.10.2018 22:00:00 - - - - - - -
22.10.2018 21:00:00 - - - - - - -
22.10.2018 20:00:00 16,6 12,0 22 12 NO 1015,6 25
22.10.2018 19:00:00 - - - - - - -
22.10.2018 18:00:00 - - - - - - -
22.10.2018 17:00:00 19,4 10,9 28 15 NNO 1014,3 25
22.10.2018 16:00:00 - - - - - - -
22.10.2018 15:00:00 - - - - - - -
22.10.2018 14:00:00 19,8 12,6 21 11 NO 1015,1 25
22.10.2018 13:00:00 - - - - - - -
22.10.2018 12:00:00 - - - - - - -
22.10.2018 11:00:00 17,8 12,0 29 16 NO 1015,4 25
22.10.2018 10:00:00 - - - - - - -
22.10.2018 09:00:00 - - - - - - -
22.10.2018 08:00:00 16,4 13,5 28 15 NO 1014,3 25
22.10.2018 07:00:00 - - - - - - -
22.10.2018 06:00:00 - - - - - - -
22.10.2018 05:00:00 - - - - - - -
22.10.2018 04:00:00 - - - - - - -
22.10.2018 03:00:00 - - - - - - -
22.10.2018 02:00:00 - - - - - - -
22.10.2018 01:00:00 - - - - - - -
22.10.2018 00:00:00 - - - - - - -
21.10.2018 23:00:00 - - - - - - -
21.10.2018 22:00:00 - - - - - - -
21.10.2018 21:00:00 - - - - - - -
21.10.2018 20:00:00 20,0 20,0 15 8 NW 1016,1 20
21.10.2018 19:00:00 - - - - - - -
21.10.2018 18:00:00 - - - - - - -
21.10.2018 17:00:00 23,0 22,8 16 9 WNW 1016,6 20
21.10.2018 16:00:00 - - - - - - -
21.10.2018 15:00:00 - - - - - - -
21.10.2018 14:00:00 21,4 21,4 13 7 W 1018,6 15
21.10.2018 13:00:00 - - - - - - -
21.10.2018 12:00:00 - - - - - - -
21.10.2018 11:00:00 20,4 20,1 5 3 WNW 1019,8 5
21.10.2018 10:00:00 - - - - - - -
21.10.2018 09:00:00 - - - - - - -
21.10.2018 08:00:00 16,8 16,5 8 4 O 1019,3 2,5
21.10.2018 07:00:00 - - - - - - -
21.10.2018 06:00:00 - - - - - - -
21.10.2018 05:00:00 - - - - - - -
21.10.2018 04:00:00 - - - - - - -
21.10.2018 03:00:00 - - - - - - -
21.10.2018 02:00:00 - - - - - - -
21.10.2018 01:00:00 - - - - - - -
21.10.2018 00:00:00 - - - - - - -
20.10.2018 23:00:00 - - - - - - -
20.10.2018 22:00:00 - - - - - - -
20.10.2018 21:00:00 - - - - - - -
20.10.2018 20:00:00 21,0 21,0 9 5 WNW 1020,1 20
20.10.2018 19:00:00 - - - - - - -
20.10.2018 18:00:00 - - - - - - -
20.10.2018 17:00:00 23,0 23,0 13 7 NW 1020,0 20
20.10.2018 16:00:00 - - - - - - -
20.10.2018 15:00:00 - - - - - - -
20.10.2018 14:00:00 23,2 21,3 8 4 NO 1020,6 20
20.10.2018 13:00:00 - - - - - - -
20.10.2018 12:00:00 - - - - - - -
20.10.2018 11:00:00 21,2 19,9 11 6 OZO 1020,6 20
20.10.2018 10:00:00 - - - - - - -
20.10.2018 09:00:00 - - - - - - -
20.10.2018 08:00:00 17,0 16,5 11 6 OZO 1018,5 20
20.10.2018 07:00:00 - - - - - - -
20.10.2018 06:00:00 - - - - - - -
20.10.2018 05:00:00 - - - - - - -
20.10.2018 04:00:00 - - - - - - -
20.10.2018 03:00:00 - - - - - - -
20.10.2018 02:00:00 - - - - - - -
20.10.2018 01:00:00 - - - - - - -
20.10.2018 00:00:00 - - - - - - -
19.10.2018 23:00:00 - - - - - - -
19.10.2018 22:00:00 - - - - - - -
19.10.2018 21:00:00 - - - - - - -
19.10.2018 20:00:00 21,8 21,8 9 5 W 1015,6 25
19.10.2018 19:00:00 - - - - - - -
19.10.2018 18:00:00 - - - - - - -
19.10.2018 17:00:00 23,4 23,4 16 9 W 1014,3 25
19.10.2018 16:00:00 - - - - - - -
19.10.2018 15:00:00 - - - - - - -
19.10.2018 14:00:00 26,8 23,9 21 11 ZO 1013,7 25
19.10.2018 13:00:00 - - - - - - -
19.10.2018 12:00:00 - - - - - - -
19.10.2018 11:00:00 23,6 21,7 22 12 OZO 1013,3 25
19.10.2018 10:00:00 - - - - - - -
19.10.2018 09:00:00 - - - - - - -
19.10.2018 08:00:00 17,2 16,9 15 8 O 1011,2 20
19.10.2018 07:00:00 - - - - - - -
19.10.2018 06:00:00 - - - - - - -
19.10.2018 05:00:00 - - - - - - -
19.10.2018 04:00:00 - - - - - - -
19.10.2018 03:00:00 - - - - - - -
19.10.2018 02:00:00 - - - - - - -
19.10.2018 01:00:00 - - - - - - -
19.10.2018 00:00:00 - - - - - - -
18.10.2018 23:00:00 - - - - - - -
18.10.2018 22:00:00 - - - - - - -
18.10.2018 21:00:00 - - - - - - -
18.10.2018 20:00:00 20,2 19,7 15 8 ZO 1007,1 25
18.10.2018 19:00:00 - - - - - - -
18.10.2018 18:00:00 - - - - - - -
18.10.2018 17:00:00 23,8 20,1 35 19 O 1005,9 20
18.10.2018 16:00:00 - - - - - - -
18.10.2018 15:00:00 - - - - - - -
18.10.2018 14:00:00 23,0 22,2 22 12 OZO 1007,1 20
18.10.2018 13:00:00 - - - - - - -
18.10.2018 12:00:00 - - - - - - -
18.10.2018 11:00:00 20,8 20,1 15 8 ONO 1007,8 20
18.10.2018 10:00:00 - - - - - - -
18.10.2018 09:00:00 - - - - - - -
18.10.2018 08:00:00 18,0 17,2 18 10 OZO 1007,6 20
18.10.2018 07:00:00 - - - - - - -
18.10.2018 06:00:00 - - - - - - -
18.10.2018 05:00:00 - - - - - - -
18.10.2018 04:00:00 - - - - - - -
18.10.2018 03:00:00 - - - - - - -
18.10.2018 02:00:00 - - - - - - -
18.10.2018 01:00:00 - - - - - - -
18.10.2018 00:00:00 - - - - - - -
17.10.2018 23:00:00 - - - - - - -
17.10.2018 22:00:00 - - - - - - -

tt = temperatuur
td = dauwpunt
ff = windsnelheid
dd = windrichting
ppp = luchtdruk
vv = zicht

Weerstations in de omgeving